sat.trackr.live / text

‹ back to catalog

RISAT-2B

NORAD 44233 · 2019-028A

PAYLOAD ACTIVE UNKNOWN

§ Identity

Operator
Country
IND
Launch date
2019-05-22
Launch site
SRILR
Launch vehicle
Mass (kg)
RCS (m²)

External: N2YO · Heavens-Above · Gunter

§ Orbital elements

Epoch: 2026-09-20T03:06:30.903840Z

Period
95.94 min
Inclination
36.9962°
Eccentricity
0.0005966
Mean motion
15.00901635 rev/d
Perigee alt
560.0 km
Apogee alt
568.3 km
Semi-major
6,942.3 km
B*
1.6161e-4
RAAN
151.3298°
Arg perigee
65.2085°
Mean anomaly
294.9278°
Rev number
40,210

§ Raw data

RISAT-2B1 44233U 19028A   26263.12952435  .00002017  00000+0  16161-3 0  99932 44233  36.9962 151.3298 0005966  65.2085 294.9278 15.00901635402102

JSON: /api/v1/satellites/44233 · /tle

For live sub-satellite position, see the globe view (requires WebGL).

§ Visibility from observer

Set your observer location to see the next 7 days of passes ≥ 10°. The values pass through the URL so the page stays shareable.

No JS? Fill the form by hand. The geolocation button needs JavaScript.